Showing default

GLOBALSTAR M026, 25873

Orbit data source: Space-Track

GLOBALSTAR M026, 25873 is a payload satellite owned by Globalstar (US) in LEO that was launched on Sun, 25 Jul 1999 UTC via a DELTA 7420-10C launch vehicle from the Air Force Eastern Test Range (AFETR). Payload-class satellites include a variety of spacecraft equipped with specific instruments for various scientific and technological missions. These include communications satellites like Starlink; space stations such as the ISS; scientific satellites like the Hubble; Earth observation satellites from companies like Planet Labs, Umbra, and HawkEye 360; GPS; miniature CubeSats for education and research; and military/defense satellites.

Loading next visibility...
Identifier
25873, 1999-041B
Orbit
LEO
Country
Flag of UnknownUnknown / GLOB
Related business
Manufacturer
SS/Loral
Mission
Non-operational Commercial Communications
Bus & Motor
LS-400, LS-400 AOCS
Mass
450 kg wet, 380 kg dry
Launch date (UTC)
1999-07-25 (26 years ago)
Launch vehicle
DELTA 7420-10C
Launch site
Air Force Eastern Test Range (AFETR)
Object type
Payload
Rocket body
Debris
Shape & HBR
Box + 2 Pan, 6.0 m
Radar Cross Section
5.587 m², Large (>1 m²)

Expand to show TLE details & history
Last TLE update: 16 hours ago

TLE from 16 hours ago
0 GLOBALSTAR M026
1 25873U 99041B   25354.55415574 -.00000108  00000-0 -16078-2 0  9998
2 25873  52.0001 115.3381 0001795 182.6556 260.8818 11.06849030169126
Epoch: 2025-12-20T13:17Z
TLE epoch observation values (Epoch: 2025-12-20T13:17:59.055Z)
Latitude
51.66025°
Longitude
-94.00522°
Altitude
2,133.452 km
Speed
6.849 km/s
True Right ascension
12h 59m 28s
True Declination
51° 31' 12"
Sunlit
Object was in daylight at epoch
Visualization orbit readout
Latitude
Unknown
Longitude
Unknown
Altitude
Unknown
Speed
Unknown
Apparent Right ascension
Unknown
Apparent Declination
Unknown
Sunlit
N/A
Visualization observer readout
Local Sidereal Time
03:54:13
Azimuth
Unknown
Elevation
Unknown
Doppler factor
Unknown
Orbital elements
Apogee altitude
2,128.788 km
Perigee altitude
2,125.734 km
Semi-major axis
8,505.398 km
Eccentricity
0.00018
Inclination
52.0001°
RAAN
115.3381°
Arg. of periapsis
182.6556°
True anomaly
260.86149°
Mean anomaly
260.8818°
Eccentric anomaly
260.87165°
Mean motion
2.76695 °/min
Orbital period
130.11 mins
BSTAR
-0.0016078
Loading maneuver chart data...
Computing Atmospheric mass density...
Loading historical data...
Loading historical data...
Loading historical data...
Loading historical data...
Loading historical data...
Loading historical data...
Loading historical data...
Other satellites on launch #41 in the year 1999 (1999-07-25 UTC)

Documentation

Showing up to 5 results
|